COSMOS 1275 DEB, 12694

Orbit data source: Space-Track

COSMOS 1275 DEB, 12694 is space debris in LEO originally from a launch on Thu, 04 Jun 1981 UTC launched from the Plesetsk Missile And Space Complex (PKMTR). Debris objects in space refer to the collection of defunct objects orbiting the Earth. Examples of debris include non-operational satellites, rocket bodies, and fragments generated from explosions, collisions, or faulty payload assembly.

Loading next visibility...
Identifier
12694, 1981-053AN
Orbit
LEO
Country
Flag of CISCIS
Related business
Manufacturer
Unknown
Mission
Spacecraft
Bus & Motor
Unknown
Mass
Unknown
Launch date (UTC)
1981-06-04 (44 years ago)
Launch vehicle
Unknown
Launch site
Plesetsk Missile And Space Complex (PKMTR)
Object type
Payload
Rocket body
Debris
Shape & HBR
Unknown shape, 0.2 m
Radar Cross Section
Small (<0.1 m²)

Expand to show TLE details & history
Last TLE update: 17 hours ago

TLE from 17 hours ago
0 COSMOS 1275 DEB
1 12694U 81053AN  25312.35942108  .00000592  00000-0  71389-3 0  9991
2 12694  83.0801 256.8066 0115131 128.1271   1.7842 13.62196200192904
Epoch: 2025-11-08T08:37Z
TLE epoch observation values (Epoch: 2025-11-08T08:37:33.981Z)
Latitude
49.64862°
Longitude
-108.54469°
Altitude
950.345 km
Speed
7.424 km/s
True Right ascension
04h 34m 32s
True Declination
49° 28' 60"
Sunlit
Object was in full shadow at epoch
Visualization orbit readout
Latitude
Unknown
Longitude
Unknown
Altitude
Unknown
Speed
Unknown
Apparent Right ascension
Unknown
Apparent Declination
Unknown
Sunlit
N/A
Visualization observer readout
Local Sidereal Time
21:44:18
Azimuth
Unknown
Elevation
Unknown
Doppler factor
Unknown
Orbital elements
Apogee altitude
1,110.114 km
Perigee altitude
939.65 km
Semi-major axis
7,403.019 km
Eccentricity
0.01151
Inclination
83.0801°
RAAN
256.8066°
Arg. of periapsis
128.1271°
True anomaly
1.82588°
Mean anomaly
1.7842°
Eccentric anomaly
1.80498°
Mean motion
3.40745 °/min
Orbital period
105.65 mins
BSTAR
0.00071389
Loading maneuver chart data...
Computing Atmospheric mass density...
Loading historical data...
Loading historical data...
Loading historical data...
Loading historical data...
Loading historical data...
Loading historical data...
Loading historical data...

Documentation

Showing up to 5 results
|